Terminal Aerodrome Forecast
Issued by NWS Omaha/Valley, NE

Home | Current Version | Previous Version | Text Only | Print | Product List | Glossary Off
Versions: 1 2 3 4 5 6 7 8 9 10 11 12 13 14 15

000
FTUS43 KOAX 021120
TAFOFK
TAF
KOFK 021120Z 0212/0312 29004KT P6SM SKC
     FM021600 22006KT P6SM SCT050
     FM030200 VRB03KT P6SM BKN250=

USA.gov is the U.S. government's official web portal to all federal, state and local government web resources and services.